TimeMST,TemperatureF,Dew PointF,Humidity,Sea Level PressureIn,VisibilityMPH,Wind Direction,Wind SpeedMPH,Gust SpeedMPH,PrecipitationIn,Events,Conditions,WindDirDegrees,DateUTC
12:56 AM,27.0,23.0,85,30.24,-9999.0,Calm,Calm,-,N/A,,Unknown,0,2013-12-01 07:56:00
1:56 AM,27.0,24.1,89,30.23,-9999.0,Calm,Calm,-,N/A,,Unknown,0,2013-12-01 08:56:00
2:56 AM,27.0,24.1,89,30.21,-9999.0,Calm,Calm,-,N/A,,Unknown,0,2013-12-01 09:56:00
3:56 AM,26.1,24.1,92,30.21,-9999.0,Variable,5.8,-,N/A,,Unknown,0,2013-12-01 10:56:00
4:56 AM,26.1,25.0,96,30.20,-9999.0,Variable,5.8,-,N/A,,Unknown,0,2013-12-01 11:56:00
5:56 AM,27.0,23.0,85,30.19,-9999.0,Variable,6.9,-,N/A,,Unknown,0,2013-12-01 12:56:00
6:56 AM,27.0,23.0,85,30.18,-9999.0,Variable,4.6,-,0.01,,Unknown,0,2013-12-01 13:56:00
7:56 AM,26.1,23.0,88,30.17,-9999.0,Variable,5.8,-,N/A,,Unknown,0,2013-12-01 14:56:00
8:56 AM,26.1,23.0,88,30.16,-9999.0,West,8.1,-,0.02,,Unknown,280,2013-12-01 15:56:00
9:56 AM,27.0,24.1,89,30.14,-9999.0,West,8.1,-,0.01,,Unknown,270,2013-12-01 16:56:00
10:56 AM,28.0,24.1,85,30.12,-9999.0,Variable,3.5,-,0.02,,Unknown,0,2013-12-01 17:56:00
11:56 AM,28.9,24.1,82,30.04,-9999.0,WSW,8.1,-,0.01,,Unknown,240,2013-12-01 18:56:00
12:56 PM,28.9,25.0,85,30.01,-9999.0,West,8.1,-,N/A,,Unknown,270,2013-12-01 19:56:00
1:56 PM,28.9,26.1,89,29.99,-9999.0,Variable,6.9,-,0.02,,Unknown,0,2013-12-01 20:56:00
2:56 PM,30.0,25.0,82,29.94,-9999.0,Variable,6.9,23.0,0.02,,Unknown,0,2013-12-01 21:56:00
3:56 PM,28.9,25.0,85,29.96,-9999.0,West,8.1,-,N/A,,Unknown,260,2013-12-01 22:56:00
4:56 PM,30.0,25.0,82,29.95,-9999.0,Variable,4.6,-,N/A,,Unknown,0,2013-12-01 23:56:00
5:56 PM,30.0,25.0,82,29.93,-9999.0,Variable,6.9,17.3,N/A,,Unknown,0,2013-12-02 00:56:00
6:56 PM,28.9,26.1,89,29.95,-9999.0,West,8.1,-,0.01,,Unknown,260,2013-12-02 01:56:00
7:56 PM,30.0,27.0,88,29.93,-9999.0,Variable,5.8,-,0.02,,Unknown,0,2013-12-02 02:56:00
8:56 PM,30.0,27.0,88,29.92,-9999.0,Variable,5.8,-,N/A,,Unknown,0,2013-12-02 03:56:00
9:56 PM,30.9,27.0,85,29.91,-9999.0,West,9.2,17.3,N/A,,Unknown,270,2013-12-02 04:56:00
10:56 PM,30.0,27.0,88,29.88,-9999.0,Variable,5.8,-,N/A,,Unknown,0,2013-12-02 05:56:00
11:56 PM,30.9,27.0,85,29.86,-9999.0,West,9.2,18.4,N/A,,Unknown,260,2013-12-02 06:56:00